Погода в Купанге

Индонезия     10°12′42″S   123°35′54″E
темп.,
°C
ветер,
м/с
пор.,
м/с
влажн.,
%
обл.,
%
осадки,
мм/ч
давл.,
гПа
погр.,
м
2 марта, вт
вт223:00+26в1178100 0.0 1010189
02:00+26юв0182100 1.5 1009267
05:00+25ссв3386100 8.4 1009130
08:00+27с3380100 11.0 1010480
11:00+28с3380100 1.2 1010663
14:00+28сз347685 2.4 1007730
17:00+28сз3477100 1.4 1008670
20:00+27ссз2377100 2.8 1010504
3 марта, ср
ср323:00+27ссз237768 0.0 1011487
02:00+27ссз347984 0.0 1009589
05:00+26с4579100 0.0 1009552
08:00+27с4579100 0.0 1011760
11:00+28ссз447790 0.1 1010750
14:00+28ссз447495 0.3 1008817
17:00+28зсз3473100 0.0 1008972
20:00+27з2375100 0.0 1010611
4 марта, чт
чт423:00+27з2377100 0.0 1011572
02:00+27з237796 0.4 1009576
05:00+27сз237674 0.0 1009617
08:00+28с237782 0.0 1011421
11:00+28сз347270 0.0 1010619
14:00+29зсз456881 0.0 1008939
17:00+28з45753 0.3 1008867
20:00+28зюз45781 0.3 1010682
5 марта, пт
пт523:00+27зюз348117 0.1 1010640
02:00+26з23819 1.9 1009540
05:00+26зсз13809 0.0 1009572
08:00+27ссз127926 0.0 1011533
11:00+28сз23765 0.0 1010608
14:00+28сз34732 0.0 1008816
17:00+28зсз34745 0.0 1007819
20:00+27зсз23797 0.0 1009551
6 марта, сб
сб623:00+27зсз238023 0.0 1010596
02:00+27зсз347814 0.1 1009521
05:00+27сз34790 0.0 1009511
08:00+28сз33760 0.0 1010762
11:00+28сз457637 0.0 1009785
14:00+29зсз567657 0.0 1007826
17:00+28зсз347810 0.0 1007734
20:00+27з34815 0.0 1010526